MINOTAUR 4 DEB, 52981

Orbit data source: Space-Track

MINOTAUR 4 DEB, 52981 is space debris in LEO originally from a launch on Wed, 15 Jul 2020 UTC launched from the Wallops Island (WLPIS). Debris objects in space refer to the collection of defunct objects orbiting the Earth. Examples of debris include non-operational satellites, rocket bodies, and fragments generated from explosions, collisions, or faulty payload assembly.

Loading next visibility...
MINOTAUR 4 DEB details
Identifier
52981, 2020-046AJ
Orbit
LEO
Last TLE update2 days ago
Origin
Flag of USUSSF SSC (US)
ManufacturerNGIS FSG
MissionSpacecraft
Bus & MotorUnknown
MassUnknown
Launch date (UTC)
2020-07-15 (4 years ago)
Launch vehicleUnknown
Launch site
Wallops Island (WLPIS)
Object type
Payload
Rocket body
Debris
Shape & HBRUnknown
Radar Cross SectionSmall (<0.1 m²)

Expand to show TLE details & history

TLE from 2 days ago
0 MINOTAUR 4 DEB
1 52981U 20046AJ  24359.86618644  .00134879  00000-0  30201-2 0  9993
2 52981  53.9239  46.9052 0014871 336.2875  23.7454 15.42414156  2650
Epoch: 2024-12-24T20:47Z
Definitive object data (Epoch: 2024-12-24T20:47:18.508Z)
Latitude-0.00003°
Longitude1.20992°
Altitude430.696 km
Speed7.66 km/s
True Right ascension03h 07m 37s
True Declination0° 00' 00"
Sunlit
Object was in full shadow at TLE epoch
Visualization TLE readout
Latitude-1.29426°
Longitude173.86163°
Altitude448.169 km
Speed7.639 km/s
Apparent Right ascension13h 55m 24s
Apparent Declination-64° 57' 09"
Sunlit
Object is in daylight
Visualization observer readout
Local Sidereal Time14:55:23
Azimuth186.53° SSW
Elevation-15.525°
Doppler factor1
Orbital elements
Apogee altitude449.259 km
Perigee altitude428.983 km
Semi-major axis6,817.258 km
Eccentricity0.0014871
Inclination53.9239°
RAAN46.9052°
Arg. of periapsis336.2875°
True anomaly23.81414°
Mean anomaly23.7454°
Eccentric anomaly23.77976°
Mean motion3.85593 °/min
BSTAR0.0030201
Orbital period93.36 mins
Loading maneuver chart data...
Loading historical data...
Loading historical data...
Loading historical data...
Loading historical data...
Loading historical data...
Loading historical data...
Loading historical data...

MINOTAUR 4 DEB Visibility forecast

Observer location: undefined°, undefined

Span
Click to sort rows by Start time (UTC) header in descending order
Start Az.
Max El. time (UTC)
Max El. Az.
Max El.
End time (UTC)
End Az.
6 mins2024-12-27 04:55:22.420Z202.456° SSW2024-12-27 04:58:22.420Z128.405° SE33.085°2024-12-27 05:01:22.420Z62.745° ENE
4 mins2024-12-27 11:28:22.420Z351.247° N2024-12-27 11:29:22.420Z18.363° NNE25.673°2024-12-27 11:32:22.420Z90.937° ESE
4 mins2024-12-27 13:05:22.420Z270.065° WNW2024-12-27 13:06:22.420Z242.365° WSW26.347°2024-12-27 13:09:22.420Z169.894° S
|